Tracking 25744 objects as of 25-Jun-2022
HD Live streaming from Space Station
objects crossing your sky now

STARLINK-3355

Track STARLINK-3355 now!
10-day predictions
STARLINK-3355 is classified as:


NORAD ID: 50808
Int'l Code: 2022-001F
Perigee: 545.1 km
Apogee: 548.7 km
Inclination: 53.2 °
Period: 95.4 minutes
Semi major axis: 6917 km
RCS: Unknown
Launch date: January 6, 2022
Source: United States (US)
Launch site: AIR FORCE EASTERN TEST RANGE (AFETR)
aabbcc
Your satellite tracking list
Your tracking list is empty




NASA's NSSDC Master Catalog

Two Line Element Set (TLE):
1 50808U 22001F   22175.79336230  .00001691  00000-0  12431-3 0  9997
2 50808  53.2171 116.9974 0002572  55.9441 304.1795 15.08840906 27406
Source of the keplerian elements: AFSPC